Weather Service Report


244 
ASUS44 KFWD 230315
RWRTX 
NORTH TEXAS HOURLY WEATHER ROUNDUP
NATIONAL WEATHER SERVICE FORT WORTH TX
1000 PM CDT FRI AUG 22 2014

NOTE: "FAIR" INDICATES FEW OR NO CLOUDS BELOW 12,000 FEET WITH NO
SIGNIFICANT WEATHER AND/OR OBSTRUCTIONS TO VISIBILITY.

TXZ118-119-230400-
DALLAS/FORT WORTH METROPLEX
  
CITY           SKY/WX    TMP DP  RH WIND       PRES   REMARKS
DFW AIRPORT    CLEAR     90  65  43 SE10      29.95R HX  92           
DALLAS LOVE    CLEAR     91  69  48 SE16G23   29.95R HX  96           
FTW MEACHAM    CLEAR     92  60  34 SE15      29.94R HX  91           
DAL-EXECUTIVE  CLEAR     90  68  48 SE10      29.96R HX  94           
FTW-ALLIANCE   CLEAR     88  59  37 S9        29.94R                  
FTW-NAS-JRB    CLEAR     94  57  28 S13       29.98R HX  92           
FTW-SPINKS     CLEAR     85  62  46 SE6       29.97R                  
ARLINGTON      CLEAR     89  66  46 SE10      29.96R HX  91           
GRAND PRAIRIE  CLEAR     90  64  43 SE10      29.97R HX  91           
MESQUITE       CLEAR     87  67  52 SE7       29.97                   
LANCASTER      CLEAR     87  66  50 SE7       29.97R                  
$$

TXZ091>094-102>105-117-120-121-131>134-230400-
NORTH CENTRAL TEXAS
  
CITY           SKY/WX    TMP DP  RH WIND       PRES   REMARKS
SHRMAN/DENISON CLEAR     87  59  38 SE12      29.97R                  
GAINESVILLE    CLEAR     80  64  59 SE6       29.97R                  
BOWIE          CLEAR     84  59  41 SE6       29.95R                  
BRIDGEPORT     CLEAR     89  54  29 S9        29.95S                  
DECATUR        CLEAR     87  56  34 SE7       29.96R                  
DENTON         CLEAR     87  60  40 SE9       29.94R                  
MCKINNEY       CLEAR     85  69  58 SE8       29.96R                  
GREENVILLE     CLEAR     86  64  48 S8        29.98R                  
ROCKWALL       CLEAR     86  70  58 SE8       29.96R HX  90           
TERRELL        CLEAR     87  67  51 SE8       29.98R HX  90           
WAXAHACHIE     CLEAR     87  64  47 SE8       29.99R                  
CLEBURNE       CLEAR     88  63  42 SE9       29.99R                  
GRANBURY       CLEAR     91  57  32 SE8       29.97R                  
$$

TXZ083>090-098>101-113>116-127>130-139>142-154-155-230400-
WESTERN NORTH TEXAS
  
CITY           SKY/WX    TMP DP  RH WIND       PRES   REMARKS
WICHITA FALLS  CLEAR     88  51  28 S12       29.90R                  
WF-KICKAPOO    CLEAR     87  48  25 SE8       29.92R                  
VERNON         CLEAR     88  45  22 S10       29.91R                  
ABILENE        CLEAR     88  51  28 S15G22    29.98R                  
ABILENE-DYESS  CLEAR     84  54  35 S12       29.97R                  
BRECKENRIDGE   CLEAR     89  46  22 S8        29.95R                  
GRAHAM         CLEAR     88  48  25 SE8       29.93R                  
MINERAL WELLS  CLEAR     86  57  37 SE8       29.94R                  
STEPHENVILLE   CLEAR     89  53  29 S8        30.00R                  
COMANCHE       CLEAR     84  51  31 S6        29.98R                  
BROWNWOOD      CLOUDY    84  50  30 S6        29.98R                  
COLEMAN        CLEAR     80  53  39 S7        29.99S                  
BRADY          CLEAR     82  54  36 SE6       30.01R                  
$$

TXZ143>147-156>162-174-175-230400-
CENTRAL TEXAS
  
CITY           SKY/WX    TMP DP  RH WIND       PRES   REMARKS
WACO           CLEAR     89  66  46 SE12      29.97R HX  91           
WACO-TSTC      CLEAR     90  64  43 S9        29.97R HX  91           
WACO-MCGREGOR  CLEAR     90  63  40 SE15      29.98R HX  90           
HILLSBORO      CLEAR     89  65  45 SE10G16   29.98R HX  90           
CORSICANA      CLEAR     88  70  55 SE12      29.99R HX  93           
MEXIA          CLEAR     84  68  59 SE5       29.98R                  
HEARNE           N/A     88  68  52 SE7       29.99R HX  91           
CAMERON        CLEAR     88  66  48 SE6       29.98R HX  90           
TEMPLE         CLEAR     90  63  40 SE15      29.98R HX  90           
KILLEEN        CLEAR     90  61  37 SE10      29.99                   
KILLEEN-SKYLRK CLEAR     90  61  37 SE9       29.98S                  
FORT HOOD      CLEAR     91  61  36 SE7       29.99R HX  91           
GATESVILLE     CLEAR     86  61  42 CALM      30.00R                  
HAMILTON       CLEAR     86  55  34 SE9       30.00R                  
LAMPASAS       CLEAR     88  62  42 SE5       29.99R                  
$$

TXZ095>097-106>112-122>126-135>138-148>153-164>167-230400-
EAST TEXAS
  
CITY           SKY/WX    TMP DP  RH WIND       PRES   REMARKS
PARIS          CLEAR     81  66  61 SE7       29.99R                  
SULPHUR SPRNGS CLEAR     87  68  53 S7        30.00S HX  90           
CLARKSVILLE    MOCLDY    84  70  62 CALM      29.98S                  
MOUNT PLEASANT CLEAR     80  69  68 SE6       30.01R                  
GILMER         CLEAR     84  73  70 S6        30.02R HX  91           
MINEOLA        CLEAR     84  73  70 S5        30.00R HX  91           
TYLER          CLEAR     85  71  63 S9        30.00R HX  90           
LONGVIEW       CLEAR     82  71  69 S7        30.00R                  
MARSHALL       CLEAR     82  74  78 CALM      30.03S                  
ATHENS         CLEAR     81  70  69 SE3       29.99S                  
PALESTINE      CLEAR     84  72  65 SE5       30.01R HX  90           
JACKSONVILLE   CLEAR     83  72  69 SE6       30.04S                  
HENDERSON      CLEAR     80  72  75 SE5       30.02R                  
NACOGDOCHES    CLEAR     81  73  78 SE5       30.03R                  
LUFKIN         CLEAR     83  74  74 SE5       30.02R                  
$$

SUPPLEMENTAL OBSERVATIONS (CENTRAL)
  
CITY           SKY/WX    TMP DP  RH WIND       PRES   REMARKS
LAKE TEXOMA      N/A     84  63  48 SE6         N/A                   
CADDO GRASSLND   N/A     84  66  54 S7          N/A                   
PAT MAYSE LAKE   N/A     84  68  58 SE9         N/A                   
GREENVILLE       N/A     86  68  54 S7          N/A                   
CEDAR HILL       N/A     88  66  48 SE9         N/A  HX  90           
ATHENS           N/A     84  70  61 S8          N/A                   
LAKE LIMESTONE   N/A     86  68  54 SE5         N/A                   
MCGREGOR         N/A     90  61  37 SE9         N/A                   
$$

SUPPLEMENTAL OBSERVATIONS (WEST)
  
CITY           SKY/WX    TMP DP  RH WIND       PRES   REMARKS
LBJ GRASSLAND    N/A     90  57  33 SE9         N/A                   
GRANBURY         N/A     90  57  33 SE8         N/A                   
COMANCHE         N/A     84  50  30 S6          N/A                   
HAMBY            N/A     88  48  25 S14         N/A                   
IVIE RESERVOIR   N/A     82  55  39 SE6         N/A                   
COLORADO BEND    N/A     88  57  35 SE6         N/A                   
$$

SUPPLEMENTAL OBSERVATIONS (EAST)
  
CITY           SKY/WX    TMP DP  RH WIND       PRES   REMARKS
LUFKIN           N/A     81  75  83 MISG        N/A                   
N SABINE NF      N/A     77  72  83 MISG        N/A                   
$$

SUPPLEMENTAL OBSERVATIONS ARE A COLLECTION OF AUTOMATED INSTRUMENTS
THAT ARE MAINTAINED BY A VARIETY OF FEDERAL AND STATE AGENCIES. 
CERTAIN ELEMENTS...SUCH AS HUMIDITY VALUES AND SUSTAINED WIND 
SPEEDS...MAY BE APPROXIMATED.


Return to Home page


Western Regional Climate Center, wrcc@dri.edu